Triuchirapalli, India

2:39 AM IST on September 17, 2019 (GMT +0530)
Tiruchirappalli

Weather History for VOTR - July, 2019

Change the Weather History Date:

Thursday, July 11, 2019

  Actual Average Record
Temperature  
Mean Temperature 89 °F -  
Max Temperature 98 °F 93 °F 102 °F (2008)
Min Temperature 80 °F 80 °F 46 °F (2007)
Cooling Degree Days 24    
Growing Degree Days 39 (Base 50)    
Moisture  
Dew Point 69 °F    
Average Humidity 51    
Maximum Humidity 66    
Minimum Humidity 27    
Precipitation  
Precipitation 0.00 in - - ()
Sea Level Pressure  
Sea Level Pressure 29.76 in    
Wind  
Wind Speed 10 mph ()    
Max Wind Speed 17 mph    
Max Gust Speed 23 mph    
Visibility 4.1 miles    
Events      
Averages and records for this station are not official NWS values.
T = Trace of Precipitation, MM = Missing Value Source: Averaged Metar Reports

Daily Weather History Graph

Daily Weather History Graph

Search for Another Location

Airport or City:

Astronomy

Jul. 11, 2019 Rise Set
Actual Time 5:59 AM IST 6:42 PM IST
Civil Twilight 5:36 AM IST 7:04 PM IST
Nautical Twilight 5:09 AM IST 7:31 PM IST
Astronomical Twilight 4:41 AM IST 7:59 PM IST
Moon 1:56 PM IST (7/11) 1:14 AM IST (7/11)
Length of Visible Light 13h 28m
Length of Day
12h 42m
Waxing Gibbous, 70% of the Moon is Illuminated
Jul 11
Waxing Gibbous
Jul 17
Full
Jul 25
Last Quarter
Aug 1
New
Aug 7
First Quarter

Hourly Weather History & Observations

Time (IST) Temp. Heat Index Dew Point Humidity Pressure Visibility Wind Dir Wind Speed Gust Speed Precip Events Conditions
12:00 AM 86.0 °F 90.4 °F 69.8 °F 58% 29.77 in 3.7 mi WNW 12.7 mph - N/A   Scattered Clouds
12:30 AM 84.2 °F 88.4 °F 69.8 °F 62% 29.77 in 3.7 mi West 11.5 mph - N/A   Scattered Clouds
1:00 AM 84.2 °F 88.4 °F 69.8 °F 62% 29.77 in 3.7 mi West 10.4 mph - N/A   Scattered Clouds
1:30 AM 84.2 °F 88.4 °F 69.8 °F 62% 29.77 in 3.7 mi West 15.0 mph - N/A   Scattered Clouds
2:00 AM 84.2 °F 88.4 °F 69.8 °F 62% 29.74 in 3.7 mi West 13.8 mph - N/A   Scattered Clouds
2:30 AM 85 °F - 67 °F 46% 29.74 in 2 mi WNW 17.3 mph - -   Haze
2:30 AM 84.2 °F 87.3 °F 68.0 °F 58% 29.74 in 3.7 mi West 17.3 mph - N/A   Scattered Clouds
3:00 AM 84.2 °F 87.3 °F 68.0 °F 58% 29.74 in 3.7 mi West 11.5 mph 23.0 mph N/A   Scattered Clouds
3:30 AM 84.2 °F 87.3 °F 68.0 °F 58% 29.74 in 3.7 mi West 11.5 mph 23.0 mph N/A   Partly Cloudy
4:00 AM 82.4 °F 85.4 °F 68.0 °F 62% 29.74 in 3.7 mi West 11.5 mph 23.0 mph N/A   Partly Cloudy
4:30 AM 82.4 °F 85.4 °F 68.0 °F 62% 29.74 in 3.7 mi West 9.2 mph 20.7 mph N/A   Partly Cloudy
5:00 AM 82.4 °F 85.4 °F 68.0 °F 62% 29.74 in 3.7 mi West 9.2 mph - N/A   Partly Cloudy
5:30 AM 82 °F - 68 °F 55% 29.76 in 2 mi West 11.5 mph - -   Haze
5:30 AM 82.4 °F 85.4 °F 68.0 °F 62% 29.77 in 3.7 mi West 11.5 mph - N/A   Scattered Clouds
6:00 AM 80.6 °F 83.2 °F 68.0 °F 65% 29.77 in 3.7 mi West 12.7 mph - N/A   Scattered Clouds
6:30 AM 80.6 °F 83.2 °F 68.0 °F 65% 29.77 in 3.7 mi West 11.5 mph - N/A   Scattered Clouds
7:00 AM 82.4 °F 85.4 °F 68.0 °F 62% 29.77 in 5.0 mi West 9.2 mph - N/A   Scattered Clouds
7:30 AM 84.2 °F 87.3 °F 68.0 °F 58% 29.80 in 5.0 mi West 11.5 mph - N/A   Scattered Clouds
8:00 AM 84.2 °F 87.3 °F 68.0 °F 58% 29.80 in 5.0 mi West 9.2 mph - N/A   Scattered Clouds
8:30 AM 85 °F - 70 °F 51% 29.79 in 6 mi West 9.2 mph - -   Haze
9:00 AM 86.0 °F 90.4 °F 69.8 °F 58% 29.80 in 5.0 mi WNW 11.5 mph - N/A   Mostly Cloudy
9:30 AM 87.8 °F 91.4 °F 68.0 °F 52% 29.80 in 5.0 mi WNW 11.5 mph - N/A   Mostly Cloudy
10:00 AM 89.6 °F 93.4 °F 68.0 °F 49% 29.80 in 5.0 mi WNW 11.5 mph - N/A   Mostly Cloudy
10:30 AM 89.6 °F 93.4 °F 68.0 °F 49% 29.80 in 5.0 mi West 8.1 mph - N/A   Mostly Cloudy
11:00 AM 91.4 °F 94.0 °F 66.2 °F 43% 29.77 in 5.0 mi WNW 9.2 mph - N/A   Mostly Cloudy
11:30 AM 92 °F - 69 °F 37% 29.77 in 6 mi WNW 11.5 mph - -   Haze
11:30 AM 91.4 °F 96.8 °F 69.8 °F 49% 29.77 in 5.0 mi WNW 11.5 mph - N/A   Mostly Cloudy
12:00 PM 93.2 °F 97.7 °F 68.0 °F 44% 29.77 in 5.0 mi WNW 11.5 mph - N/A   Mostly Cloudy
12:30 PM 93.2 °F 97.7 °F 68.0 °F 44% 29.77 in 5.0 mi West 11.5 mph - N/A   Mostly Cloudy
1:30 PM 95.0 °F 99.5 °F 68.0 °F 41% 29.74 in 5.0 mi WNW 8.1 mph - N/A   Mostly Cloudy
2:00 PM 95.0 °F 99.5 °F 68.0 °F 41% 29.74 in 5.0 mi West 11.5 mph - N/A   Mostly Cloudy
2:30 PM 98 °F - 67 °F 27% 29.72 in 2 mi WSW 9.2 mph - -   Haze
2:30 PM 96.8 °F 101.8 °F 68.0 °F 39% 29.74 in 5.0 mi WSW 9.2 mph - N/A   Mostly Cloudy
3:00 PM 98.6 °F 104.1 °F 68.0 °F 37% 29.71 in 5.0 mi West 11.5 mph - N/A   Mostly Cloudy
3:30 PM 98.6 °F 102.8 °F 66.2 °F 35% 29.71 in 5.0 mi WSW 6.9 mph - N/A   Mostly Cloudy
4:00 PM 98.6 °F 104.1 °F 68.0 °F 37% 29.68 in 5.0 mi West 9.2 mph - N/A   Mostly Cloudy
4:30 PM 96.8 °F 101.8 °F 68.0 °F 39% 29.68 in 5.0 mi WSW 6.9 mph - N/A   Mostly Cloudy
5:00 PM 96.8 °F 101.8 °F 68.0 °F 39% 29.71 in 5.0 mi West 9.2 mph - N/A   Mostly Cloudy
5:30 PM 96 °F - 66 °F 28% 29.69 in 2 mi West 9.2 mph - -   Haze
5:30 PM 96.8 °F 100.7 °F 66.2 °F 37% 29.71 in 5.0 mi West 9.2 mph - N/A   Scattered Clouds
6:00 PM 95.0 °F 98.5 °F 66.2 °F 39% 29.71 in 5.0 mi WSW 9.2 mph - N/A   Scattered Clouds
6:30 PM 93.2 °F 97.7 °F 68.0 °F 44% 29.71 in 3.7 mi West 9.2 mph - N/A   Scattered Clouds
7:00 PM 93.2 °F 97.7 °F 68.0 °F 44% 29.74 in 3.7 mi West 9.2 mph - N/A   Scattered Clouds
7:30 PM 91.4 °F 95.4 °F 68.0 °F 46% 29.74 in 3.7 mi West 11.5 mph 23.0 mph N/A   Scattered Clouds
8:00 PM 89.6 °F 93.4 °F 68.0 °F 49% 29.77 in 3.7 mi WNW 11.5 mph 23.0 mph N/A   Partly Cloudy
8:30 PM 88 °F - 71 °F 47% 29.78 in 2 mi WNW 13.8 mph - -   Scattered Clouds
8:30 PM 87.8 °F 93.8 °F 71.6 °F 58% 29.80 in 3.7 mi WNW 9.2 mph 20.7 mph N/A   Partly Cloudy
9:00 PM 87.8 °F 93.8 °F 71.6 °F 58% 29.80 in 3.7 mi WNW 9.2 mph 20.7 mph N/A   Mostly Cloudy
9:30 PM 87.8 °F 93.8 °F 71.6 °F 58% 29.80 in 3.7 mi WNW 9.2 mph 20.7 mph N/A   Mostly Cloudy
10:00 PM 86.0 °F 91.8 °F 71.6 °F 62% 29.80 in 3.7 mi WNW 9.2 mph 20.7 mph N/A   Mostly Cloudy
10:30 PM 86.0 °F 91.8 °F 71.6 °F 62% 29.80 in 3.7 mi WNW 9.2 mph - N/A   Mostly Cloudy
11:00 PM 86.0 °F 91.8 °F 71.6 °F 62% 29.80 in 3.7 mi West 9.2 mph - N/A   Mostly Cloudy
11:30 PM 85 °F - 72 °F 57% 29.80 in 2 mi WNW 9.2 mph - -   Haze
11:30 PM 84.2 °F 89.6 °F 71.6 °F 66% 29.80 in 3.7 mi WNW 9.2 mph - N/A   Mostly Cloudy